TimeEST,TemperatureF,Dew PointF,Humidity,Sea Level PressureIn,VisibilityMPH,Wind Direction,Wind SpeedMPH,Gust SpeedMPH,PrecipitationIn,Events,Conditions,WindDirDegrees,DateUTC
12:52 AM,23.0,19.0,85,30.04,10.0,SW,4.6,-,N/A,,Clear,220,2012-12-23 05:52:00
1:52 AM,23.0,18.0,81,30.02,10.0,SSW,4.6,-,N/A,,Clear,210,2012-12-23 06:52:00
2:52 AM,21.9,18.0,85,29.99,9.0,South,4.6,-,N/A,,Clear,190,2012-12-23 07:52:00
3:52 AM,21.9,17.1,82,29.96,8.0,Calm,Calm,-,N/A,,Clear,0,2012-12-23 08:52:00
4:52 AM,21.0,18.0,88,29.94,7.0,Calm,Calm,-,N/A,,Clear,0,2012-12-23 09:52:00
5:52 AM,19.9,17.1,89,29.94,7.0,Calm,Calm,-,N/A,,Clear,0,2012-12-23 10:52:00
6:52 AM,18.0,15.1,88,29.94,6.0,Calm,Calm,-,N/A,,Clear,0,2012-12-23 11:52:00
7:52 AM,19.0,15.1,85,29.94,7.0,Calm,Calm,-,N/A,,Clear,0,2012-12-23 12:52:00
8:52 AM,21.9,18.0,85,29.95,7.0,WSW,3.5,-,N/A,,Clear,240,2012-12-23 13:52:00
9:52 AM,27.0,19.9,75,29.96,9.0,West,5.8,-,N/A,,Clear,270,2012-12-23 14:52:00
10:52 AM,30.0,21.0,69,29.97,9.0,West,5.8,-,N/A,,Clear,280,2012-12-23 15:52:00
11:52 AM,32.0,24.1,73,29.96,10.0,NNW,10.4,-,N/A,,Clear,330,2012-12-23 16:52:00
12:52 PM,35.1,23.0,61,29.95,10.0,North,9.2,-,N/A,,Clear,360,2012-12-23 17:52:00
1:52 PM,36.0,24.1,62,29.96,10.0,NW,5.8,-,N/A,,Clear,320,2012-12-23 18:52:00
2:52 PM,37.0,21.0,52,29.95,10.0,NW,6.9,-,N/A,,Clear,320,2012-12-23 19:52:00
3:52 PM,36.0,21.0,55,29.97,10.0,NNW,4.6,-,N/A,,Clear,340,2012-12-23 20:52:00
4:52 PM,35.1,21.0,57,29.99,10.0,NW,5.8,-,N/A,,Clear,320,2012-12-23 21:52:00
5:52 PM,32.0,21.0,64,30.01,10.0,North,4.6,-,N/A,,Clear,350,2012-12-23 22:52:00
6:52 PM,28.9,21.9,75,30.02,10.0,North,4.6,-,N/A,,Clear,10,2012-12-23 23:52:00
7:52 PM,28.9,21.9,75,30.04,10.0,North,4.6,-,N/A,,Clear,10,2012-12-24 00:52:00
8:52 PM,28.0,21.0,75,30.05,10.0,North,5.8,-,N/A,,Clear,10,2012-12-24 01:52:00
9:52 PM,26.1,19.9,78,30.05,10.0,NNE,5.8,-,N/A,,Clear,20,2012-12-24 02:52:00
10:52 PM,25.0,19.0,78,30.04,10.0,NNE,3.5,-,N/A,,Clear,20,2012-12-24 03:52:00
11:52 PM,25.0,19.0,78,30.02,10.0,ENE,4.6,-,N/A,,Clear,60,2012-12-24 04:52:00